User: anonymous   Login
Location: ?????
(55.6500°N, 37.2500°E)
Time: 03:03:52
(UTC+00:00)
Language:

SL-16 R/B - Orbit

View from above orbital plane
View from above orbital plane
View from above satellite
View from above satellite

Ground track
Ground track

The orbit is defined by the following mean orbital elements,

1 31793U          26137.70044779 +.00000000 +00000-0 -97461-4 0 00005
2 31793  70.9774  27.3171 0002790 267.6988 112.5147 14.14850510    04
Epoch (UTC): 17 May 2026 16:48:38
Eccentricity: 0.0002790
inclination: 70.9774°
perigee height: 841 km
apogee height: 845 km
right ascension of ascending node: 27.3171°
argument of perigee: 267.6988°
revolutions per day: 14.14850510
mean anomaly at epoch: 112.5147°

The dashed part of the orbit path shows where the satellite is in the earth's shadow,  

DLR